Bradford County (N27)
Towanda, PA
Field Elevation: 730
Lat: 41°44.40N  Long: 76°26.83W
CTAF/Unicom Freq: 123.0000
   
     For Weather-by-Phone, call (570) 265-1024
Weather Advisories
8/30/2014 18:07 Z
Altimeter 30.16" Hg
Wind 210° @ 8 KT
Gusts --
Visibility 10 SM
Ceiling BKN024
Temperature 23° C (73° F)
Dewpoint 18° C (64° F)
Relative Humidity 76%
Density Altitude --
Condensation Altitude 2,900 feet
  Wind and Runways
Indicated Runway = 23
History
 
 
More Info
All DigiWx sites map
NOAA Forecast
 
Airport IQ 5010
(LHV) Lock Haven
(PS81) Robert Packer Hospital
 
about DigiWx
 
FAA Disclaimer: The data displayed is for advisory purposes only and is not to be used for flight planning or operations. For official data, please call (570) 265-1024 to hear the current automated AWOS voice message.
  METAR N27 301807Z AUTO 21008KT 10SM BKN024 23/18 A3016